TimeEDT,TemperatureF,Dew PointF,Humidity,Sea Level PressureIn,VisibilityMPH,Wind Direction,Wind SpeedMPH,Gust SpeedMPH,PrecipitationIn,Events,Conditions,WindDirDegrees,DateUTC
12:53 AM,68.0,64.0,87,30.08,10.0,WSW,5.8,-,N/A,,Mostly Cloudy,250,2013-08-17 04:53:00
1:53 AM,66.0,63.0,90,30.08,10.0,WSW,3.5,-,N/A,,Mostly Cloudy,240,2013-08-17 05:53:00
2:53 AM,66.0,64.0,93,30.08,10.0,SSE,3.5,-,N/A,,Mostly Cloudy,150,2013-08-17 06:53:00
3:53 AM,66.0,64.0,93,30.08,10.0,Calm,Calm,-,N/A,,Mostly Cloudy,0,2013-08-17 07:53:00
4:53 AM,66.9,64.0,90,30.09,10.0,Calm,Calm,-,N/A,,Overcast,0,2013-08-17 08:53:00
5:53 AM,66.0,64.0,93,30.09,8.0,Calm,Calm,-,N/A,,Mostly Cloudy,0,2013-08-17 09:53:00
6:53 AM,64.9,64.0,97,30.09,7.0,Calm,Calm,-,N/A,,Overcast,0,2013-08-17 10:53:00
7:53 AM,66.9,64.0,90,30.09,7.0,NNE,4.6,-,N/A,,Mostly Cloudy,30,2013-08-17 11:53:00
8:53 AM,68.0,64.9,90,30.10,8.0,NNE,6.9,-,N/A,,Mostly Cloudy,30,2013-08-17 12:53:00
9:53 AM,69.1,64.9,87,30.12,10.0,NE,5.8,-,N/A,,Overcast,40,2013-08-17 13:53:00
10:53 AM,71.1,62.1,73,30.12,10.0,NE,6.9,-,N/A,,Scattered Clouds,40,2013-08-17 14:53:00
11:39 AM,71.6,62.6,73,30.16,10.0,North,6.9,-,N/A,,Overcast,360,2013-08-17 15:39:00
11:46 AM,71.6,62.6,73,30.16,10.0,North,5.8,-,N/A,,Overcast,360,2013-08-17 15:46:00
11:53 AM,72.0,61.0,68,30.13,10.0,NNE,6.9,-,N/A,,Overcast,20,2013-08-17 15:53:00
1:53 PM,73.0,62.1,68,30.10,10.0,North,5.8,-,N/A,,Mostly Cloudy,10,2013-08-17 17:53:00
2:53 PM,73.9,62.1,66,30.09,10.0,NE,10.4,-,N/A,,Overcast,50,2013-08-17 18:53:00
3:53 PM,73.9,61.0,64,30.09,10.0,East,4.6,-,N/A,,Overcast,80,2013-08-17 19:53:00
4:53 PM,75.0,62.1,64,30.07,10.0,NE,5.8,-,N/A,,Overcast,50,2013-08-17 20:53:00
5:53 PM,73.0,61.0,66,30.08,10.0,NE,5.8,-,N/A,,Overcast,40,2013-08-17 21:53:00
6:53 PM,71.1,64.9,81,30.08,10.0,NNW,3.5,-,0.03,,Overcast,330,2013-08-17 22:53:00
7:19 PM,69.8,66.2,88,30.11,2.5,WNW,4.6,-,0.03,Rain,Heavy Rain,290,2013-08-17 23:19:00
7:21 PM,69.8,66.2,88,30.11,1.5,West,5.8,-,0.05,Rain,Heavy Rain,280,2013-08-17 23:21:00
7:34 PM,68.0,66.2,94,30.11,6.0,NNW,4.6,-,0.12,Rain,Rain,330,2013-08-17 23:34:00
7:53 PM,68.0,66.0,93,30.09,8.0,NNW,4.6,-,0.14,Rain,Light Rain,340,2013-08-17 23:53:00
8:53 PM,66.9,64.9,93,30.11,5.0,Calm,Calm,-,0.11,Rain,Rain,0,2013-08-18 00:53:00
9:02 PM,66.2,64.4,94,30.12,4.0,Calm,Calm,-,0.02,Rain,Rain,0,2013-08-18 01:02:00
9:53 PM,66.9,66.0,97,30.11,4.0,North,3.5,-,0.13,Rain,Rain,360,2013-08-18 01:53:00
10:53 PM,66.9,64.9,93,30.12,10.0,Calm,Calm,-,0.01,Rain,Light Rain,0,2013-08-18 02:53:00
11:53 PM,66.9,66.0,97,30.12,3.0,Calm,Calm,-,0.05,Rain,Light Rain,0,2013-08-18 03:53:00